TimePDT,TemperatureF,Dew PointF,Humidity,Sea Level PressureIn,VisibilityMPH,Wind Direction,Wind SpeedMPH,Gust SpeedMPH,PrecipitationIn,Events,Conditions,WindDirDegrees,DateUTC
12:04 AM,51.8,50.0,94,29.79,10.0,South,5.8,-,N/A,,Overcast,170,2012-10-28 07:04:00
12:34 AM,51.8,51.8,100,29.79,10.0,South,9.2,-,N/A,,Overcast,190,2012-10-28 07:34:00
12:43 AM,53.6,51.8,94,29.79,10.0,SSW,11.5,21.9,N/A,,Overcast,200,2012-10-28 07:43:00
12:53 AM,52.0,50.0,93,29.80,10.0,SSW,11.5,23.0,N/A,,Mostly Cloudy,200,2012-10-28 07:53:00
1:53 AM,53.1,50.0,89,29.83,10.0,SSW,10.4,24.2,N/A,,Clear,210,2012-10-28 08:53:00
2:53 AM,53.1,48.9,86,29.86,10.0,Variable,6.9,-,N/A,,Clear,0,2012-10-28 09:53:00
3:53 AM,53.1,48.9,86,29.88,10.0,Variable,5.8,-,N/A,,Clear,0,2012-10-28 10:53:00
4:53 AM,54.0,48.0,80,29.87,10.0,WSW,9.2,18.4,N/A,,Clear,250,2012-10-28 11:53:00
5:53 AM,52.0,46.9,83,29.89,10.0,SE,6.9,-,N/A,,Clear,140,2012-10-28 12:53:00
6:53 AM,52.0,46.9,83,29.90,10.0,Calm,Calm,-,N/A,,Clear,0,2012-10-28 13:53:00
7:53 AM,48.9,46.9,93,29.91,10.0,SE,4.6,-,N/A,,Partly Cloudy,140,2012-10-28 14:53:00
8:53 AM,48.9,46.9,93,29.92,10.0,Calm,Calm,-,N/A,,Clear,0,2012-10-28 15:53:00
9:53 AM,53.1,48.0,83,29.93,10.0,SW,6.9,-,N/A,,Partly Cloudy,230,2012-10-28 16:53:00
10:53 AM,53.1,48.9,86,29.93,10.0,SW,6.9,-,N/A,,Mostly Cloudy,220,2012-10-28 17:53:00
11:53 AM,55.0,48.0,77,29.94,10.0,SSW,6.9,-,N/A,,Mostly Cloudy,210,2012-10-28 18:53:00
12:53 PM,55.0,48.0,77,29.94,10.0,SW,4.6,-,N/A,,Overcast,230,2012-10-28 19:53:00
1:53 PM,55.0,48.0,77,29.93,10.0,ESE,4.6,-,N/A,,Mostly Cloudy,110,2012-10-28 20:53:00
2:53 PM,55.9,48.0,75,29.92,10.0,ESE,5.8,-,N/A,,Partly Cloudy,110,2012-10-28 21:53:00
3:53 PM,53.1,48.0,83,29.91,10.0,Calm,Calm,-,N/A,,Clear,0,2012-10-28 22:53:00
4:53 PM,52.0,46.9,83,29.90,10.0,Calm,Calm,-,N/A,,Clear,0,2012-10-28 23:53:00
5:53 PM,50.0,46.9,89,29.88,9.0,Calm,Calm,-,N/A,,Mostly Cloudy,0,2012-10-29 00:53:00
6:53 PM,48.9,46.9,93,29.86,10.0,Calm,Calm,-,N/A,,Overcast,0,2012-10-29 01:53:00
7:40 PM,48.2,46.4,93,29.85,10.0,Calm,Calm,-,N/A,,Overcast,0,2012-10-29 02:40:00
7:53 PM,50.0,48.0,93,29.86,10.0,Calm,Calm,-,N/A,,Overcast,0,2012-10-29 02:53:00
8:29 PM,48.2,46.4,93,29.84,10.0,Calm,Calm,-,N/A,,Overcast,0,2012-10-29 03:29:00
8:53 PM,48.9,48.0,97,29.83,7.0,Calm,Calm,-,0.00,Rain,Light Rain,0,2012-10-29 03:53:00
9:18 PM,50.0,48.2,94,29.81,10.0,Calm,Calm,-,0.00,Rain,Light Rain,0,2012-10-29 04:18:00
9:26 PM,50.0,48.2,94,29.82,10.0,Calm,Calm,-,0.00,Rain,Light Rain,0,2012-10-29 04:26:00
9:53 PM,50.0,48.0,93,29.81,10.0,Calm,Calm,-,0.00,Rain,Light Rain,0,2012-10-29 04:53:00
10:22 PM,50.0,48.2,94,29.80,10.0,Calm,Calm,-,0.00,Rain,Light Rain,0,2012-10-29 05:22:00
10:53 PM,50.0,48.0,93,29.79,7.0,North,3.5,-,0.00,Rain,Light Rain,360,2012-10-29 05:53:00
11:50 PM,51.8,48.2,88,29.77,6.0,North,5.8,-,0.00,Rain,Light Rain,10,2012-10-29 06:50:00
11:53 PM,51.1,48.9,92,29.77,6.0,North,4.6,-,0.00,Rain,Light Rain,10,2012-10-29 06:53:00